Home   Weather   Manizales   Past weeks

Flag for Colombia Past Weather in Manizales, Colombia — Yesterday and Last 2 Weeks

Now
81 °F

Scattered clouds.


Feels Like: 82 °F
Forecast: 56 / 73 °F
Wind: 5 mph from West

Location: Pereira / Matecana

Current Time: Sep 30, 2016 at 1:48:24 PM

Latest Report: Sep 30, 2016 at 1:00 PM


Visibility: N/A

Pressure: 30.03 "Hg (23.54 "Hg at 2139m altitude)

Humidity: 54%

Dew Point: 63 °F

Location of ManizalesLocation

Past Weather in Manizales — Graph

°F

Manizales Temperature Yesterday

Maximum temperature yesterday: 81 °F (at 2:00 PM)
Minimum temperature yesterday: 64 °F (at 5:00 AM)
Average temperature yesterday: 72 °F

High & Low Weather Summary for the Past Weeks

 TemperatureHumidityPressure
High86 °F (Sep 16, 3:00 PM)94% (Sep 18, 5:00 PM)30.16 "Hg (Sep 18, 5:00 PM)
Low64 °F (Sep 16, 5:00 AM)43% (Sep 16, 3:00 PM)29.90 "Hg (Sep 26, 3:00 PM)
Average73 °F75%30.04 "Hg
* Reported Sep 15 1:00 PM — Sep 30 1:00 PM, Manizales, Weather by CustomWeather, © 2016

Note: Actual official high and low records may vary slightly from our data, if they occured in-between our weather recording intervals... More about our weather records

Advertising

Manizales Weather History for the Previous 24 Hours

Scroll right to see more
 ConditionsComfort  
Time TempWeatherWind HumidityBarometerVisibility
1:00 PM
Fri, Sep 30
81 °FScattered clouds.5 mph54%30.03 "HgN/A
12:00 PM79 °FScattered clouds.7 mph58%30.05 "HgN/A
11:00 AM75 °FScattered clouds.5 mph69%30.08 "HgN/A
10:00 AM75 °FScattered clouds.7 mph69%30.12 "HgN/A
9:00 AM73 °FPassing clouds.2 mph69%30.11 "HgN/A
8:00 AM70 °FScattered clouds.6 mph78%30.09 "HgN/A
7:00 AM66 °FPassing clouds.9 mph83%30.07 "HgN/A
6:00 AM64 °FPassing clouds.7 mph88%30.06 "HgN/A
5:00 AM64 °FPassing clouds.2 mph88%30.15 "HgN/A
12:00 AM68 °FFog.2 mph88%30.12 "HgN/A
11:00 PM
Thu, Sep 29
68 °FPassing clouds.6 mph88%30.13 "HgN/A
10:00 PM68 °FPartly cloudy.5 mph88%30.12 "Hg6 mi
9:00 PM70 °FPassing clouds.5 mph78%30.09 "HgN/A
8:00 PM72 °FPassing clouds.5 mph73%30.07 "HgN/A
7:00 PM70 °FPassing clouds.8 mph83%30.04 "HgN/A
6:00 PM75 °FPassing clouds.6 mph74%30.00 "HgN/A
5:00 PM77 °FScattered clouds.2 mph69%29.98 "HgN/A
4:00 PM79 °FScattered showers. Scattered clouds.2 mph65%29.97 "HgN/A
3:00 PM81 °FScattered showers. Scattered clouds.6 mph62%29.98 "HgN/A
2:00 PM81 °FScattered clouds.6 mph62%30.04 "HgN/A
1:00 PM79 °FScattered clouds.6 mph65%30.07 "HgN/A
Weather by CustomWeather, © 2016

See weather overviewHow to use our weather pages